User: anonymous   Login
Location: Unspecified
(0.0000°N, 0.0000°E)
Time: 05:16:49
(UTC+02:00)
Language:

Cosmos 2219 - Orbit

View from above orbital plane
View from above orbital plane
View from above satellite
View from above satellite

Ground track
Ground track

The orbit data is extracted from the following two-line orbital elements,

1 22219U 92076A   16145.50108963  .00000234  00000-0  14892-3 0  9995
2 22219  71.0610 289.6062 0019993 263.0034  96.8815 14.13595008213284
Epoch (UTC): 24 May 2016 12:01:34
Eccentricity: 0.0019993
inclination: 71.0610°
perigee height: 832 km
apogee height: 861 km
right ascension of ascending node: 289.6062°
argument of perigee: 263.0034°
revolutions per day: 14.13595008
mean anomaly at epoch: 96.8815°
orbit number at epoch: 21328

The dashed part of the orbit path shows where the satellite is in the earth's shadow,  

DLR